Hourly Weather Roundup
Issued by NWS Central Illinois

Home | Current Version | Previous Version | Text Only | Print | Product List | Glossary On
Versions: 1 2 3 4 5 6 7 8 9 10 11 12 13 14 15 16 17 18 19 20 21 22 23 24 25 26 27 28 29 30 31 32 33 34 35 36 37 38 39 40 41 42 43 44 45 46 47 48 49 50
000
NZUS43 KILX 220010
HWRILX

Area Weather Roundup
National Weather Service Lincoln IL
700 PM CDT SAT APR 21 2018

NOTE:  "FAIR" indicates few or no clouds below 12,000 feet, with
       no sigificant weather and/or obstructions to visibility.


CITY           SKY/WX    TMP DP  RH WIND       PRES   REMARKS
Bloomington    FAIR      56  27  32 E17       30.28F
6HR MIN TEMP:  56; 6HR MAX TEMP:  63;

Champaign      FAIR      57  29  34 NE13      30.28S
6HR MIN TEMP:  57; 6HR MAX TEMP:  65;

Danville       FAIR      56  30  37 NE10      30.28R
6HR MIN TEMP:  56; 6HR MAX TEMP:  62;

Decatur        FAIR      57  29  34 E16       30.25F
6HR MIN TEMP:  57; 6HR MAX TEMP:  65;

Effingham      FAIR      61  34  36 NE7       30.25F
6HR MIN TEMP:  61; 6HR MAX TEMP:  65;

Flora          FAIR      64  32  30 E7        30.24R
6HR MIN TEMP:  64; 6HR MAX TEMP:  69;

Galesburg      FAIR      60  29  32 E12       30.29S
6HR MIN TEMP:  60; 6HR MAX TEMP:  67;

Jacksonville   MOCLDY    59  29  32 E9        30.24S
6HR MIN TEMP:  59; 6HR MAX TEMP:  63;

Lacon          FAIR      54  32  43 NE13      30.31R
6HR MIN TEMP:  54; 6HR MAX TEMP:  60;

Lawrenceville  FAIR      62  30  29 NE13      30.24R
6HR MIN TEMP:  62; 6HR MAX TEMP:  69;

Litchfield     CLOUDY    59  34  38 E6        30.24R
6HR MIN TEMP:  59; 6HR MAX TEMP:  64;

$$


CITY           SKY/WX    TMP DP  RH WIND       PRES   REMARKS
Lincoln        FAIR      57  31  37 NE16      30.25F
6HR MIN TEMP:  57; 6HR MAX TEMP:  64;

Macomb         MOCLDY    56  29  35 E15       30.30R
6HR MIN TEMP:  56; 6HR MAX TEMP:  63;

Mattoon        FAIR      57  30  35 E14       30.25S
6HR MIN TEMP:  57; 6HR MAX TEMP:  64;

Mt Carmel AP   FAIR      62  32  31 NE10      30.22R
6HR MIN TEMP:  62; 6HR MAX TEMP:  67;

Olney-Noble AP FAIR      62  26  25 NE7       30.24R
Paris AP       FAIR      56  31  38 NE10      30.29S
6HR MIN TEMP:  56; 6HR MAX TEMP:  64;

Peoria         FAIR      58  31  35 E15G22    30.27F
6HR MIN TEMP:  58; 6HR MAX TEMP:  63;

Pontiac        FAIR      54  33  45 E16       30.32S
6HR MIN TEMP:  54; 6HR MAX TEMP:  61;

Rantoul        FAIR      58  31  36 E13       30.30S
6HR MIN TEMP:  58; 6HR MAX TEMP:  62;

Robinson       FAIR      59  31  35 E9        30.27R
Springfield    FAIR      60  29  30 E12       30.26R
6HR MIN TEMP:  60; 6HR MAX TEMP:  66;

Taylorville    FAIR      60  30  31 E7        30.25R
6HR MIN TEMP:  60; 6HR MAX TEMP:  64;

$$

...REGIONAL REPORTS...


CITY           SKY/WX    TMP DP  RH WIND       PRES   REMARKS
Chicago O`Hare CLOUDY    49  17  28 E9        30.36R
Kankakee       FAIR      53  31  43 NE9       30.34S
La Salle       MOCLDY    55  31  39 E12       30.32F
Moline         FAIR      57  32  38 E9        30.31R
Mount Sterling CLOUDY    59  29  32 E10       30.24S
Mount Vernon   FAIR      63  34  33 NE8       30.23R
Pittsfield     CLOUDY    61  30  30 E10       30.23F
Quincy         CLOUDY    60  27  28 E8        30.22F
Rockford       CLOUDY    54  31  41 E5        30.36S
$$


CITY           SKY/WX    TMP DP  RH WIND       PRES   REMARKS
Burlington     CLOUDY    58  25  28 E14       30.26R
Cedar Rapids   FAIR      54  32  43 E14       30.30R
Des Moines     CLOUDY    57  24  28 E10       30.26S
Kirksville     CLOUDY    57  30  35 E10       30.23R
Ottumwa        CLOUDY    57  26  30 E8        30.26R
St Louis       CLOUDY    63  32  31 E13       30.21R
$$


CITY           SKY/WX    TMP DP  RH WIND       PRES   REMARKS
Terre Haute    FAIR      57  30  35 E10       30.28R
Evansville     FAIR      66  32  28 E7        30.21R
Indianapolis   CLOUDY    58  20  22 E13       30.31S
Lafayette      FAIR      54  24  31 E14G21    30.32S
Madison        MOCLDY    52  33  48 E6        30.35S
Milwaukee      MOCLDY    46  18  32 SE3       30.37S
$$






USA.gov is the U.S. government's official web portal to all federal, state and local government web resources and services.